Temperature
19 17 16 15 14 13 13 12 12 11 11 11 11 10 10 10 10 10 10 10 10 9 9 9 9 10 10 10 11 11 11 12 12 11 11 11 11 11 12 12 12 13 13
19 18 16 15 14 13 13 12 12 12 11 11 10 10 10 10 10 9 9 9 9 9 9 9 9 9 10 10 10 11 11 12 11 11 11 11 10 10 11 11 12 12 12
19 18 17 15 14 13 13 12 12 12 11 11 10 10 10 10 9 9 9 9 9 9 9 9 9 9 9 10 10 11 11 11 11 11 11 10 9 10 10 10 10 11 11
19 18 17 16 14 13 13 12 12 12 11 11 10 10 10 10 9 9 9 9 9 9 9 9 9 9 10 10 10 11 11 11 11 11 10 10 9 9 9 9 9 10 10
19 18 17 16 15 14 13 12 12 11 11 11 10 10 10 9 9 9 9 9 9 9 9 9 9 9 9 10 10 11 11 11 10 10 10 9 9 8 9 9 9 9 9
19 18 17 16 15 14 13 12 12 11 11 10 10 10 9 9 9 9 9 9 9 9 9 9 9 9 9 9 10 10 10 10 9 9 9 9 8 8 8 8 9 9 9
19 18 17 16 15 14 13 12 11 11 11 10 10 10 9 9 9 9 9 9 9 9 9 9 9 9 9 9 9 10 10 10 9 9 9 8 8 8 8 8 8 8 8
19 18 17 16 15 14 13 12 11 11 11 10 10 10 9 9 9 9 9 9 9 9 9 9 9 9 9 9 9 9 9 9 9 8 8 8 8 8 7 8 8 8 8
18 17 16 15 14 13 12 12 11 11 10 10 10 9 9 9 9 9 9 9 9 9 9 9 9 9 9 9 9 9 9 9 8 8 8 8 8 7 7 8 8 8 8
18 17 16 15 14 13 12 11 11 11 10 10 10 9 9 9 9 8 9 9 9 9 9 9 9 9 9 9 9 9 9 9 8 8 8 8 8 7 7 7 8 8 8
18 17 16 14 13 12 12 11 11 10 10 10 9 9 9 9 8 8 8 8 8 8 8 9 9 9 9 9 9 9 9 8 8 8 8 8 8 8 7 7 7 7 7
18 17 16 14 13 12 11 11 11 10 10 10 9 9 9 9 8 8 8 8 8 8 8 8 8 9 8 8 8 9 8 8 8 8 8 8 8 8 7 7 7 7 7
17 17 16 15 13 12 12 11 11 10 10 10 9 9 9 8 8 8 8 8 8 8 8 8 8 8 8 8 8 8 8 8 8 8 8 8 8 8 8 7 6 6 6
16 16 16 15 14 13 11 11 11 10 10 10 9 9 9 9 9 8 8 8 8 8 8 8 8 7 8 8 8 8 8 8 8 8 8 8 8 8 8 8 7 6 6
16 16 16 15 14 13 12 11 11 10 10 10 9 9 9 9 9 8 8 8 8 8 8 8 8 7 8 8 8 8 8 8 8 8 8 8 8 8 8 8 7 6 6
17 16 16 15 14 13 13 12 11 10 10 10 9 9 9 9 9 8 8 8 8 8 8 7 7 7 7 7 8 8 8 8 8 8 8 8 8 8 8 8 8 7 6
17 16 16 15 14 14 13 12 11 10 10 10 10 9 9 9 8 8 8 8 8 8 7 7 7 7 7 7 7 7 7 8 8 8 8 8 8 8 8 8 8 8 7
17 17 16 15 15 14 13 12 11 10 10 10 9 9 9 9 8 8 8 8 7 7 7 7 7 7 7 7 7 7 7 7 7 7 7 8 8 8 8 8 8 8 8
17 17 16 15 14 14 13 12 11 10 10 10 9 9 9 9 8 8 8 7 7 7 7 7 7 6 6 6 6 6 6 7 7 7 7 8 8 8 8 8 8 8 8
17 16 16 15 14 13 12 11 11 10 10 10 9 9 9 9 8 8 8 7 7 7 7 7 7 6 6 6 6 5 6 6 6 7 7 8 8 8 8 8 8 8 8
16 16 15 15 14 13 13 12 11 11 10 10 10 9 9 9 8 8 8 8 7 7 7 7 6 6 6 6 5 5 5 5 6 7 7 8 8 8 8 9 9 9 9
16 15 15 14 14 13 12 12 11 11 10 10 10 10 9 9 9 8 8 8 7 7 7 7 7 6 6 5 5 4 4 5 6 5 6 7 8 8 8 8 8 8 8
15 14 14 14 13 13 12 12 12 11 11 11 10 10 10 9 9 9 8 8 8 7 7 7 7 6 6 5 4 4 3 5 5 5 5 5 5 6 6 7 7 7 7
14 14 13 13 13 12 12 12 11 11 11 10 10 10 10 9 9 9 8 8 8 7 7 7 7 6 6 5 4 4 4 3 3 4 4 4 4 4 5 5 6 6 6
13 13 13 12 12 12 12 11 11 11 10 10 10 10 9 9 9 9 8 8 8 7 7 7 7 6 5 5 5 4 3 3 2 1 2 4 4 4 4 4 4 4 5
12 12 12 12 12 11 11 11 10 10 10 9 9 9 9 8 8 8 8 7 7 7 7 7 6 6 5 5 5 4 3 2 2 1 1 2 3 3 3 3 2 3 4
Wind_Speed
11 20 23 22 21 19 17 15 14 12 12 11 11 11 11 11 11 11 12 12 12 12 12 12 12 13 13 14 15 15 16 17 17 18 18 18 17 17 17 16 16 17 18
15 23 24 24 22 20 18 16 14 13 12 11 11 11 11 10 10 10 11 11 11 11 11 11 12 12 12 13 13 14 15 15 15 16 15 16 17 17 17 17 16 16 17
16 24 25 24 23 21 18 17 15 14 13 12 11 11 10 10 9 9 10 10 10 10 10 10 11 11 12 12 12 13 13 13 13 13 13 13 14 15 15 15 16 16 16
18 23 24 25 23 21 19 18 16 15 13 12 11 11 10 10 9 9 9 9 9 9 9 9 10 10 10 11 11 11 12 12 12 11 11 12 12 13 14 14 14 14 14
18 22 23 26 24 22 20 18 17 15 14 13 12 11 10 9 9 8 8 8 8 8 8 8 8 9 9 9 9 10 10 10 10 10 10 10 10 11 12 12 12 12 12
18 22 23 26 24 22 21 19 17 16 15 13 12 11 10 9 9 8 7 7 7 7 7 7 7 8 8 8 8 8 8 8 6 8 8 9 9 9 10 10 10 10 11
17 21 22 26 24 23 21 20 18 17 15 14 13 11 10 9 9 8 7 7 6 6 6 6 6 6 6 6 6 7 7 6 5 6 6 8 8 8 8 8 8 9 9
16 19 21 25 24 23 21 20 19 17 16 14 13 12 11 10 9 8 7 6 5 5 5 5 5 5 5 5 5 5 5 4 2 3 4 5 8 6 6 6 6 6 7
16 18 18 22 22 22 21 20 20 18 16 15 14 13 11 10 10 9 8 7 5 5 4 3 3 3 3 3 3 3 3 3 1 1 2 4 7 5 4 4 4 4 4
14 17 18 20 21 20 20 21 20 19 17 15 14 13 12 10 10 9 9 8 6 5 4 3 2 2 1 1 1 1 1 2 2 2 2 3 7 6 4 3 3 3 3
13 16 17 18 19 19 18 19 19 19 18 16 14 14 12 11 10 9 9 8 7 6 5 5 4 3 3 2 1 1 3 3 3 4 4 4 7 7 6 5 5 4 4
17 18 17 17 18 18 16 16 16 16 16 15 13 14 12 10 9 7 8 8 8 7 7 6 6 5 6 5 4 4 5 5 6 6 6 6 9 9 9 8 8 7 7
15 16 17 16 17 16 14 14 13 13 14 14 14 12 11 9 8 8 8 8 9 8 8 6 7 7 7 6 6 7 7 7 7 8 8 9 11 12 12 12 11 11 10
13 16 16 17 16 16 15 14 13 12 12 12 13 13 11 9 9 8 8 8 8 8 8 8 8 8 9 9 10 10 10 10 9 9 10 11 14 15 15 15 15 14 14
13 14 16 17 17 16 15 13 13 13 12 13 12 13 13 11 10 10 10 10 10 10 10 10 10 11 11 11 12 12 13 13 13 13 11 14 16 17 18 18 18 18 17
12 13 15 17 18 17 14 13 13 13 13 13 13 14 15 14 12 11 11 11 12 12 12 12 13 12 12 12 13 14 15 15 15 15 15 15 18 20 21 22 22 21 21
9 11 13 15 16 17 16 15 13 13 13 13 13 15 16 16 15 13 12 12 13 14 14 13 14 13 12 12 13 16 16 17 17 17 17 17 16 19 23 25 25 25 24
7 9 11 11 14 15 14 14 12 12 12 12 13 14 16 17 17 15 13 13 15 14 13 12 11 11 11 12 12 12 14 15 18 19 19 19 18 18 20 25 28 28 28
5 7 9 10 11 12 13 12 11 11 11 12 12 13 15 17 17 16 14 15 15 13 12 11 11 12 13 13 13 13 13 14 16 18 20 21 22 21 21 22 27 30 31
6 6 7 8 9 9 8 8 7 8 9 11 11 13 15 15 17 17 15 16 15 11 11 12 14 13 13 13 13 14 15 15 16 17 19 21 22 24 24 24 23 24 31
9 7 6 6 7 7 6 6 6 7 7 8 11 14 15 16 16 16 14 15 13 12 14 15 14 14 13 11 11 12 16 18 19 17 17 17 20 23 24 24 23 22 21
10 8 6 5 5 6 5 5 4 5 6 7 9 12 14 15 16 15 15 13 13 12 14 15 14 12 11 10 8 9 10 12 13 14 15 15 16 17 18 22 23 22 21
11 8 6 5 4 4 5 4 3 3 4 5 7 7 11 14 15 16 16 15 13 13 13 14 14 15 13 11 11 10 9 8 8 7 11 12 13 13 14 16 20 22 23
10 8 8 6 5 4 4 4 5 4 5 5 5 6 7 10 12 14 15 16 14 13 14 14 14 13 14 13 12 13 15 12 10 10 9 11 13 14 15 14 16 19 22
9 8 8 7 6 4 3 3 4 5 5 5 6 7 7 7 9 11 13 13 13 12 15 15 15 15 13 15 13 12 14 14 16 13 16 16 15 14 15 16 15 17 20
8 8 7 8 7 4 2 1 2 4 5 6 7 7 6 6 6 8 10 11 12 12 13 14 15 16 16 17 15 14 14 13 12 14 17 18 18 16 16 15 15 16 19
Wind_Direction
176 170 172 172 166 164 162 158 153 148 141 135 127 119 115 108 102 95 94 90 85 81 77 74 72 70 68 66 65 65 64 62 59 59 60 64 67 66 64 60 59 59 58
166 169 172 172 168 167 165 162 157 154 148 144 136 127 121 116 109 100 96 92 86 82 79 76 74 73 72 70 68 68 67 64 61 60 59 62 64 64 63 60 59 60 58
161 167 172 172 170 170 169 166 161 159 155 151 144 136 130 125 117 109 100 94 89 84 79 77 76 75 74 74 71 70 69 65 61 59 60 59 62 63 62 60 59 60 59
165 168 173 172 172 172 171 168 166 164 161 156 150 144 139 133 125 116 106 99 94 88 83 80 79 77 75 75 74 71 69 64 59 57 58 55 57 61 61 60 59 58 58
168 171 172 172 174 175 174 172 171 169 166 163 157 152 147 141 133 125 116 108 101 95 89 84 81 80 78 76 76 73 68 61 59 62 58 51 52 59 58 57 57 57 56
171 173 173 174 176 177 178 176 174 173 172 169 165 161 157 152 144 134 128 120 112 104 97 89 84 82 81 79 78 74 66 54 61 63 55 46 44 56 56 55 54 54 53
172 175 174 177 179 180 180 179 178 178 176 175 173 170 168 162 155 147 141 133 124 115 106 96 87 83 82 81 80 76 65 45 56 63 53 42 36 46 50 49 48 49 48
175 176 176 180 181 183 183 183 181 181 181 181 179 178 177 172 165 160 156 150 144 133 119 106 96 86 81 80 80 77 62 36 62 61 47 35 23 29 42 39 37 39 41
179 180 179 182 185 186 187 186 184 185 186 186 186 184 184 180 177 173 170 168 165 156 143 129 112 98 87 80 79 81 68 28 331 27 7 12 5 4 20 23 18 19 24
184 186 185 185 187 189 190 190 188 187 190 190 190 188 186 188 188 185 184 182 183 182 177 173 168 158 125 94 76 90 85 265 279 281 284 334 341 334 336 338 337 339 343
191 193 192 190 189 191 192 190 190 190 192 193 194 189 189 198 198 194 194 187 199 203 204 208 213 214 216 208 224 223 236 268 277 272 271 303 310 305 302 297 291 290 291
196 196 195 195 191 192 192 191 194 194 194 197 200 196 198 202 202 196 174 194 213 220 224 227 229 230 235 234 210 222 255 265 270 262 260 275 284 286 283 278 274 271 269
199 195 199 198 195 193 192 194 194 194 196 200 201 198 193 196 199 205 206 205 217 223 229 221 231 237 244 251 258 256 263 267 263 263 258 258 268 273 276 273 268 264 262
201 199 199 199 198 199 197 197 197 197 197 197 197 195 193 198 207 210 217 222 225 227 234 238 245 247 251 254 255 260 259 256 258 260 258 254 259 264 267 269 267 263 260
206 200 200 200 201 201 202 202 203 203 203 203 200 201 205 209 216 219 225 227 232 236 238 244 248 252 253 255 255 257 258 257 256 255 256 251 254 257 260 262 263 262 260
207 201 198 201 203 203 205 207 208 210 209 210 207 210 213 218 222 224 231 233 236 237 242 246 251 255 256 256 257 256 257 258 256 253 253 253 250 251 254 256 258 258 258
204 199 196 200 203 206 210 213 215 215 215 216 217 219 219 223 227 228 235 237 239 240 243 247 253 256 258 258 259 259 258 256 255 254 253 252 251 248 248 250 253 254 255
184 187 190 193 203 208 211 215 219 222 222 224 225 226 226 229 231 234 238 242 244 243 242 244 249 251 254 257 260 260 257 255 255 255 253 250 249 249 247 246 248 250 251
147 165 178 189 199 205 211 216 221 224 228 231 231 232 233 234 235 237 242 247 248 244 243 246 249 251 258 260 261 263 261 259 257 255 253 250 247 246 247 247 245 247 248
107 134 158 178 192 196 203 212 219 226 231 234 235 237 238 237 237 239 244 249 249 244 245 247 250 252 256 265 270 269 266 262 257 254 253 252 248 245 244 245 246 246 245
90 105 128 155 174 182 187 198 211 225 231 235 239 242 242 242 242 241 245 250 247 244 248 251 253 256 256 259 268 273 267 257 253 250 249 249 248 245 244 243 242 243 244
80 88 102 127 156 176 186 195 213 231 242 246 245 247 246 246 246 244 245 249 249 249 252 254 253 254 257 247 249 276 283 277 251 242 244 245 248 247 244 242 241 240 241
73 75 86 103 132 166 181 187 195 223 244 245 247 250 250 249 248 246 248 251 252 250 252 253 250 247 252 250 235 245 266 273 298 252 237 240 242 243 244 242 240 239 238
73 77 84 93 107 135 171 197 214 234 252 267 274 269 269 260 256 253 253 253 255 253 253 254 251 249 249 253 249 237 244 262 274 282 257 244 245 248 250 247 244 241 238
80 81 84 90 92 107 153 201 235 257 275 288 291 285 284 274 263 259 257 256 256 255 255 256 255 251 246 248 250 248 247 250 251 257 271 271 263 253 250 251 250 247 243
88 84 86 88 85 87 104 160 254 283 294 300 301 301 298 290 278 268 261 259 258 257 258 257 257 254 251 250 250 249 249 248 247 249 261 268 270 267 260 252 249 249 248
Height
1551 1552 1554 1556 1558 1559 1561 1562 1563 1564 1565 1565 1566 1566 1566 1566 1566 1566 1565 1565 1564 1563 1563 1563 1562 1562 1561 1561 1560 1560 1559 1559 1559 1558 1558 1557 1557 1557 1556 1556 1556 1555 1555
1551 1552 1553 1556 1557 1559 1561 1562 1563 1564 1565 1565 1566 1566 1566 1566 1566 1566 1566 1566 1565 1565 1564 1564 1563 1563 1562 1561 1561 1561 1560 1560 1560 1559 1559 1559 1558 1558 1557 1557 1556 1556 1555
1551 1552 1553 1555 1557 1559 1561 1562 1563 1564 1565 1566 1567 1567 1567 1567 1567 1567 1567 1567 1566 1565 1565 1564 1564 1563 1563 1562 1562 1561 1561 1561 1561 1561 1561 1560 1560 1559 1558 1558 1557 1556 1556
1551 1552 1553 1555 1557 1559 1560 1562 1563 1564 1565 1566 1567 1567 1568 1568 1568 1568 1568 1567 1567 1566 1566 1565 1565 1564 1564 1563 1563 1562 1562 1562 1562 1562 1562 1561 1561 1560 1559 1559 1558 1557 1556
1551 1552 1553 1554 1556 1558 1560 1562 1563 1564 1565 1567 1567 1568 1568 1568 1568 1568 1568 1568 1567 1567 1566 1566 1565 1565 1565 1564 1563 1563 1563 1563 1563 1563 1563 1562 1562 1561 1560 1560 1559 1558 1557
1550 1551 1552 1554 1556 1558 1560 1561 1563 1564 1565 1567 1567 1568 1568 1569 1569 1569 1568 1568 1568 1567 1567 1567 1566 1566 1565 1565 1564 1564 1564 1564 1564 1564 1563 1563 1563 1562 1561 1560 1559 1559 1558
1550 1551 1552 1553 1555 1557 1559 1561 1562 1564 1565 1567 1568 1568 1569 1569 1569 1569 1569 1569 1568 1568 1568 1567 1567 1566 1566 1566 1565 1565 1565 1565 1564 1564 1564 1563 1563 1562 1561 1561 1560 1559 1558
1549 1550 1551 1552 1554 1557 1559 1560 1562 1564 1565 1566 1567 1568 1569 1569 1569 1569 1569 1569 1569 1569 1568 1568 1567 1567 1567 1566 1566 1565 1565 1565 1564 1564 1564 1563 1563 1562 1561 1561 1560 1559 1558
1547 1548 1550 1551 1553 1555 1558 1560 1561 1563 1564 1566 1567 1568 1569 1569 1570 1570 1569 1569 1569 1569 1569 1568 1568 1568 1567 1567 1566 1566 1565 1565 1565 1564 1563 1563 1562 1562 1561 1560 1559 1559 1558
1545 1546 1548 1550 1552 1554 1557 1559 1561 1562 1564 1565 1567 1568 1568 1569 1570 1570 1570 1569 1569 1569 1569 1568 1568 1568 1567 1567 1566 1566 1565 1565 1564 1563 1563 1562 1561 1561 1560 1559 1559 1558 1557
1542 1543 1545 1548 1550 1553 1555 1557 1560 1561 1563 1564 1566 1567 1568 1569 1569 1570 1570 1569 1569 1569 1569 1568 1568 1567 1567 1566 1566 1565 1565 1564 1563 1562 1562 1561 1560 1560 1559 1558 1558 1557 1556
1539 1540 1542 1545 1548 1551 1553 1556 1558 1560 1561 1563 1565 1566 1567 1568 1569 1569 1568 1568 1568 1568 1568 1568 1567 1567 1566 1566 1565 1564 1564 1563 1562 1561 1560 1559 1559 1558 1557 1557 1556 1556 1555
1535 1537 1540 1542 1545 1548 1551 1553 1556 1557 1559 1561 1563 1564 1565 1566 1566 1567 1567 1567 1567 1567 1567 1567 1566 1566 1565 1565 1564 1563 1562 1561 1560 1559 1558 1557 1557 1556 1555 1555 1554 1554 1553
1531 1534 1537 1540 1542 1545 1548 1551 1553 1555 1556 1558 1560 1561 1562 1563 1564 1565 1565 1566 1566 1566 1566 1565 1565 1564 1563 1562 1561 1560 1560 1559 1558 1556 1556 1555 1554 1553 1553 1552 1552 1551 1551
1527 1530 1533 1536 1539 1542 1545 1548 1550 1552 1554 1556 1557 1558 1560 1561 1562 1562 1563 1563 1563 1563 1563 1562 1562 1561 1560 1559 1558 1557 1556 1555 1554 1553 1552 1551 1550 1550 1549 1548 1548 1548 1548
1524 1527 1530 1533 1536 1539 1542 1545 1547 1549 1551 1553 1554 1555 1557 1558 1559 1559 1560 1560 1560 1560 1560 1559 1559 1558 1556 1555 1554 1553 1552 1551 1550 1549 1547 1546 1546 1545 1544 1544 1543 1543 1543
1521 1524 1527 1530 1533 1536 1539 1542 1544 1546 1548 1549 1551 1552 1553 1555 1555 1556 1556 1556 1556 1556 1555 1555 1554 1553 1552 1550 1549 1548 1546 1545 1544 1543 1542 1540 1540 1539 1539 1538 1538 1538 1538
1519 1522 1525 1527 1530 1533 1535 1538 1540 1542 1544 1546 1547 1548 1549 1551 1552 1552 1552 1552 1552 1551 1551 1550 1549 1548 1546 1545 1543 1542 1540 1538 1537 1536 1535 1533 1532 1532 1532 1531 1531 1531 1531
1519 1521 1523 1525 1528 1530 1532 1535 1537 1538 1540 1541 1543 1544 1545 1546 1547 1547 1547 1547 1547 1546 1545 1544 1543 1542 1540 1539 1537 1535 1533 1530 1529 1527 1526 1525 1524 1523 1523 1523 1523 1523 1522
1519 1521 1523 1524 1526 1528 1530 1531 1533 1535 1536 1537 1538 1539 1540 1541 1541 1541 1541 1541 1541 1539 1538 1538 1537 1536 1534 1532 1530 1527 1524 1522 1519 1517 1517 1516 1515 1514 1514 1514 1513 1513 1513
1521 1522 1523 1524 1525 1526 1528 1529 1530 1532 1533 1534 1534 1535 1535 1535 1535 1535 1535 1535 1534 1533 1532 1531 1530 1528 1527 1526 1522 1518 1515 1513 1509 1507 1506 1506 1506 1505 1504 1503 1503 1502 1502
1523 1524 1524 1525 1525 1526 1527 1528 1529 1530 1531 1531 1531 1531 1531 1531 1530 1530 1529 1528 1528 1526 1525 1524 1523 1521 1520 1519 1517 1514 1509 1506 1501 1497 1496 1496 1495 1495 1493 1493 1492 1492 1491
1526 1526 1526 1526 1527 1527 1528 1528 1529 1529 1529 1529 1529 1528 1527 1527 1526 1525 1524 1523 1521 1520 1518 1517 1516 1514 1512 1512 1510 1508 1506 1500 1497 1491 1488 1487 1486 1485 1484 1483 1482 1481 1481
1528 1528 1528 1528 1528 1528 1528 1528 1528 1528 1528 1527 1526 1525 1524 1523 1521 1520 1519 1517 1516 1514 1512 1511 1510 1507 1505 1503 1503 1499 1498 1495 1493 1485 1483 1480 1477 1475 1474 1473 1472 1471 1471
1529 1529 1530 1529 1529 1529 1529 1528 1528 1527 1527 1525 1524 1522 1521 1519 1517 1515 1514 1512 1510 1508 1506 1504 1503 1500 1498 1495 1494 1492 1489 1486 1484 1480 1472 1473 1471 1468 1464 1462 1461 1460 1459
1531 1531 1530 1530 1530 1529 1528 1528 1527 1526 1524 1523 1521 1519 1517 1515 1513 1511 1509 1507 1504 1502 1500 1498 1495 1493 1490 1488 1485 1483 1481 1478 1475 1472 1466 1462 1461 1459 1458 1454 1450 1449 1448